Weather in Saint-Denis

Reunion     20°53′33″S   55°28′15″E
temp.,
°C
wind,
m/s
gust,
m/s
humid.,
%
clouds,
%
prec.,
mm/h
press.,
hPa
HPBL,
m
26 july, mon
mon2601:00+14se338632 0.1 1023201
04:00+13sse23869 0.3 1022123
07:00+12sse238513 0.1 1024139
10:00+16e226410 0.1 1024719
13:00+18ene235537 0.1 10221169
16:00+16ne117164 0.3 1021712
19:00+15ene128048 0.4 1023463
22:00+14se348191 0.4 1024164
27 july, tue
tue2701:00+13sse23845 0.0 1023104
04:00+13sse22819 0.0 102289
07:00+13sse228318 0.0 102288
10:00+16ese237562 0.0 1023402
13:00+16e117592 0.1 1021394
16:00+16ene127327 0.3 1020592
19:00+14se228322 0.0 1022169
22:00+14sse228171 0.1 102383
28 july, wed
wed2801:00+15sse227677 0.0 1022107
04:00+13ese338863 0.2 1021153
07:00+14ese349360 1.1 1022217
10:00+15e4593100 2.5 1024454
13:00+14ese4688100 3.1 1023364
16:00+14ese5791100 5.0 1022359
19:00+14se4689100 0.3 1024282
22:00+14ese469399 0.4 1025385
29 july, thu
thu2901:00+14ese469588 0.6 1025423
04:00+14ese589476 1.3 1024481
07:00+15ese479586 0.7 1026618
10:00+15ese579393 1.4 1027553
13:00+15ese479193 0.6 1025622
16:00+14ese468970 1.0 1025512
19:00+13ese459146 0.1 1027336
22:00+12se578835 0.1 1028335
30 july, fri
fri3001:00+13ese469134 0.1 1027330
04:00+13se359241 0.2 1026279
07:00+13ese349241 0.2 1027246
10:00+16ese337935 0.3 1028468
13:00+17e337662 0.3 1026781
16:00+16e338268 0.7 1025546
19:00+15ese338780 0.6 1027296
22:00+14ese238940 0.8 1027224